CAPE
0 0 0 0 0 0 0 0 0 0 0 0 0 0 0 0 0 0 0 0 0 0 0 0 0 0 0 0 0 0 0 0 0 0 0 0 0 0 0 1 0 0 0 0
0 0 0 0 0 0 0 0 0 0 0 0 0 0 0 0 0 0 0 0 0 0 0 0 0 0 0 0 0 0 0 0 0 0 0 0 1 0 0 0 0 0 0 0
0 0 0 0 0 0 0 0 0 0 0 0 0 0 0 0 0 0 0 0 0 0 0 0 0 0 0 0 0 0 0 0 0 0 0 0 0 0 0 0 0 0 0 0
0 0 0 0 0 0 0 0 0 0 0 0 0 0 0 0 0 0 0 0 0 0 0 0 0 0 0 0 0 0 0 0 0 0 0 0 0 0 0 0 0 0 0 0
0 0 0 0 0 0 0 0 0 0 0 0 0 0 0 0 0 0 0 0 0 0 0 0 0 0 0 0 0 0 0 0 0 0 0 0 0 0 0 0 0 0 0 0
0 0 0 0 0 0 0 0 0 0 0 0 0 0 0 0 0 0 0 0 0 0 0 0 0 0 0 0 0 0 0 0 0 0 0 0 0 2 0 0 0 0 0 0
0 0 0 0 0 0 0 0 0 0 0 0 0 0 0 0 0 0 0 0 0 0 0 0 0 0 0 0 0 0 0 0 0 0 0 0 0 0 0 0 0 0 0 0
0 0 0 0 0 0 0 0 0 0 0 0 0 0 0 0 0 0 0 0 0 0 0 0 0 0 0 0 0 0 0 0 0 0 0 0 1 0 0 0 0 0 0 0
0 0 0 0 0 0 0 0 0 0 0 0 0 0 0 0 0 0 0 0 0 0 0 0 0 0 0 0 0 0 0 0 0 0 0 0 0 0 0 0 0 0 0 0
0 0 0 0 0 0 0 0 0 0 0 0 0 0 0 0 0 0 0 0 0 0 0 0 0 0 0 0 0 0 0 0 0 0 0 0 0 0 0 0 0 0 0 0
0 0 0 0 0 0 0 0 0 0 0 0 0 0 0 0 0 0 0 0 0 0 0 0 0 0 0 0 0 0 0 0 0 0 0 0 0 0 0 0 0 0 0 0
0 0 0 0 0 0 0 0 0 0 0 0 0 0 0 0 0 0 0 0 0 0 0 0 0 0 0 0 0 0 0 0 0 0 0 0 0 0 0 0 0 0 0 0
0 1 2 0 0 0 0 0 0 0 0 0 0 0 0 0 0 0 0 0 0 0 0 0 0 0 0 0 0 0 0 0 0 0 0 0 0 0 0 0 0 0 0 0
0 0 0 0 0 0 0 0 0 0 0 0 0 0 0 0 0 0 0 0 0 0 0 0 0 0 0 0 0 0 0 0 0 0 0 0 0 0 0 0 0 0 0 0
4 5 5 0 0 0 0 0 0 0 0 0 0 0 0 0 0 0 0 0 0 0 0 0 0 0 0 0 0 0 0 0 0 0 0 0 0 0 0 0 0 0 0 0
15 1 11 1 1 1 2 0 0 0 0 0 0 0 0 0 0 0 0 0 0 0 0 0 0 0 0 0 0 0 0 0 0 0 0 0 0 0 0 0 0 0 0 0
13 4 4 4 1 4 0 0 0 0 0 0 0 0 0 0 0 0 0 0 0 0 0 0 0 0 0 0 0 0 0 0 0 0 0 0 0 0 0 0 0 0 0 0
1 2 4 48 11 13 0 0 0 0 0 0 0 0 0 0 0 0 0 0 0 0 0 0 0 0 0 0 0 0 0 0 0 0 0 0 0 0 0 0 0 0 0 0
1 12 26 41 36 4 4 0 0 0 0 0 0 0 0 0 0 0 0 0 0 0 0 0 0 0 0 0 0 0 0 0 0 0 0 0 0 0 0 0 0 0 0 0
0 3 29 38 53 25 0 0 0 0 27 0 0 0 0 0 0 0 0 0 0 0 0 0 0 0 0 0 0 0 0 0 0 0 0 0 0 0 0 0 0 0 0 0
4 4 7 3 21 30 0 0 0 8 0 0 0 0 0 0 0 0 0 0 0 0 0 0 0 0 0 0 0 0 0 0 0 0 0 0 0 0 0 0 0 0 0 0
0 24 39 48 56 29 0 0 4 0 0 0 0 0 0 0 0 0 0 0 0 0 0 0 0 0 0 0 0 0 0 0 0 0 0 0 0 0 0 0 0 0 0 0
41 29 44 61 21 15 0 0 0 0 0 0 4 0 0 0 0 0 0 0 0 0 0 0 0 0 0 0 0 0 0 0 0 0 0 0 0 0 0 1 1 2 0 0
71 38 55 1 0 0 0 0 0 0 0 0 0 0 0 0 0 0 0 0 0 0 0 0 0 0 0 0 0 0 0 0 0 0 0 1 1 2 2 2 1 3 2 1
0 2 27 14 0 0 0 0 0 0 0 0 0 0 0 0 0 0 0 0 0 0 0 0 0 0 0 0 0 0 0 0 0 0 0 1 2 5 3 1 2 0 0 0
3 5 0 1 0 0 0 0 0 0 0 0 0 0 0 0 0 0 0 0 0 0 0 0 0 0 0 0 0 0 0 0 0 1 1 1 2 3 1 1 0 1 0 2
CIN
0 0 0 0 0 0 0 0 0 0 0 0 0 0 0 0 0 0 0 0 0 0 0 0 0 0 0 0 0 0 0 0 0 0 0 0 0 0 0 0 0 0 0 0
0 0 0 0 0 0 0 0 0 0 0 0 0 0 0 0 0 0 0 0 0 0 0 0 0 0 0 0 0 0 0 0 0 0 0 0 0 0 0 0 0 0 0 0
0 0 0 0 0 0 0 0 0 0 0 0 0 0 0 0 0 0 0 0 0 0 0 0 0 0 0 0 0 0 0 0 0 0 0 0 0 0 0 0 0 0 0 0
0 0 0 0 0 0 0 0 0 0 0 0 0 0 0 0 0 0 0 0 0 0 0 0 0 0 0 0 0 0 0 0 0 0 0 0 0 0 0 0 0 0 0 0
0 0 0 0 0 0 0 0 0 0 0 0 0 0 0 0 0 0 0 0 0 0 0 0 0 0 0 0 0 0 0 0 0 0 0 0 0 0 0 0 0 0 0 0
0 0 0 0 0 0 0 0 0 0 0 0 0 0 0 0 0 0 0 0 0 0 0 0 0 0 0 0 0 0 0 0 0 0 0 0 0 0 0 0 0 0 0 0
0 0 0 0 0 0 0 0 0 0 0 0 0 0 0 0 0 0 0 0 0 0 0 0 0 0 0 0 0 0 0 0 0 0 0 0 0 0 0 0 0 0 0 0
0 0 0 0 0 0 0 0 0 0 0 0 0 0 0 0 0 0 0 0 0 0 0 0 0 0 0 0 0 0 0 0 0 0 0 0 0 0 0 0 0 0 0 0
0 0 0 0 0 0 0 0 0 0 0 0 0 0 0 0 0 0 0 0 0 0 0 0 0 0 0 0 0 0 0 0 0 0 0 0 0 0 0 0 0 0 0 0
0 0 0 0 0 0 0 0 0 0 0 0 0 0 0 0 0 0 0 0 0 0 0 0 0 0 0 0 0 0 0 0 0 0 0 0 0 0 0 0 0 0 0 0
0 0 0 0 0 0 0 0 0 0 0 0 0 0 0 0 0 0 0 0 0 0 0 0 0 0 0 0 0 0 0 0 0 0 0 0 0 0 0 0 0 0 0 0
0 0 0 0 0 0 0 0 0 0 0 0 0 0 0 0 0 0 0 0 0 0 0 0 0 0 0 0 0 0 0 0 0 0 0 0 0 0 0 0 0 0 0 0
0 0 0 0 0 0 0 0 0 0 0 0 0 0 0 0 0 0 0 0 0 0 0 0 0 0 0 0 0 0 0 0 0 0 0 0 0 0 0 0 0 0 0 0
0 0 0 0 0 0 0 0 0 0 0 0 0 0 0 0 0 0 0 0 0 0 0 0 0 0 0 0 0 0 0 0 0 0 0 0 0 0 0 0 0 0 0 0
-4 0 0 0 0 0 0 0 0 0 0 0 0 0 0 0 0 0 0 0 0 0 0 0 0 0 0 0 0 0 0 0 0 0 0 0 0 0 0 0 0 0 0 0
0 0 0 0 0 0 0 0 0 0 0 0 0 0 0 0 0 0 0 0 0 0 0 0 0 0 0 0 0 0 0 0 0 0 0 0 0 0 0 0 0 0 0 0
-3 -2 -1 -1 0 0 0 0 0 0 0 0 0 0 0 0 0 0 0 0 0 0 0 0 0 0 0 0 0 0 0 0 0 0 0 0 0 0 0 0 0 0 0 0
-2 -3 -13 0 0 0 -1 0 0 0 0 0 0 0 0 0 0 0 0 0 0 0 0 0 0 0 0 0 0 0 0 0 0 0 0 0 0 0 0 0 0 0 0 0
-8 0 0 0 0 -1 -3 0 0 0 0 0 0 0 0 0 0 0 0 0 0 0 0 0 0 0 0 0 0 0 0 0 0 0 0 0 0 0 0 0 0 0 0 0
0 0 0 0 0 0 0 0 0 0 -5 0 0 0 0 0 0 0 0 0 0 0 0 0 0 0 0 0 0 0 0 0 0 0 0 0 0 0 0 0 0 0 0 0
-5 0 0 0 -1 -4 0 0 0 -2 0 0 0 0 0 0 0 0 0 0 0 0 0 0 0 0 0 0 0 0 0 0 0 0 0 0 0 0 0 0 0 0 0 0
0 -2 0 0 0 -4 0 0 0 0 0 0 0 0 0 0 0 0 0 0 0 0 0 0 0 0 0 0 0 0 0 0 0 0 0 0 0 0 0 0 0 0 0 0
0 0 0 -1 -1 -99 0 0 0 0 0 0 -1 0 0 0 0 0 0 0 0 0 0 0 0 0 0 0 0 0 0 0 0 0 0 0 0 0 0 0 0 0 0 0
0 -11 -9 -35 0 0 0 0 -22 0 0 0 0 0 0 0 0 0 0 0 0 0 0 0 0 0 0 0 0 0 0 0 0 0 0 0 0 0 0 0 0 0 0 0
0 -7 -9 -3 0 0 0 0 0 0 0 0 0 0 0 0 0 0 0 0 0 0 0 0 0 0 0 0 0 0 0 0 0 0 0 0 0 0 0 0 0 0 0 0
-1 0 0 0 0 0 0 0 0 0 0 0 0 0 0 0 0 0 0 0 0 0 0 0 0 0 0 0 0 0 0 0 0 0 0 0 0 0 0 0 0 0 0 0
Wind_Speed
2 6 9 14 9 1 3 2 5 3 1 4 12 19 18 17 16 18 18 19 18 20 17 14 15 17 17 16 17 18 17 16 12 10 10 8 6 5 5 5 7 8 7 9
5 10 12 6 7 5 5 8 12 7 2 5 12 23 19 19 22 19 21 21 21 21 17 15 15 16 19 19 19 18 19 18 15 11 10 7 8 3 4 5 6 6 8 10
12 4 6 8 7 9 9 12 9 9 1 7 11 17 15 10 15 17 21 22 23 24 23 17 15 18 17 20 21 20 20 18 16 15 9 6 5 3 4 6 5 5 8 7
8 3 5 8 9 12 14 12 8 6 5 7 2 11 18 17 17 15 18 17 20 20 19 16 14 16 18 20 17 18 18 19 17 18 14 16 9 8 6 6 5 6 8 8
6 10 12 11 8 13 2 5 6 2 5 5 9 8 8 4 13 16 20 19 19 17 13 13 15 16 18 15 17 17 18 19 18 18 17 14 14 9 7 6 8 7 6 7
1 2 5 4 3 4 12 7 5 3 1 10 9 11 9 11 8 5 6 9 10 9 8 9 7 6 9 9 13 15 18 19 19 19 20 20 18 15 11 10 8 7 6 6
5 8 3 3 7 4 4 9 4 5 6 12 4 7 14 7 11 10 12 17 5 2 5 5 5 7 9 11 13 13 17 19 19 19 19 19 19 17 17 15 12 12 9 8
12 11 13 10 15 9 12 11 8 8 6 8 2 13 8 10 10 14 14 18 11 9 7 8 7 6 8 10 12 14 16 17 18 18 19 16 17 11 12 13 11 11 11 10
8 8 1 3 4 13 8 12 9 7 1 4 10 20 21 15 17 16 18 14 14 10 10 11 9 9 8 9 12 14 15 15 17 18 17 18 16 17 14 12 12 9 8 7
3 8 1 3 3 1 10 7 6 5 7 11 14 16 17 5 11 10 7 10 11 11 10 9 7 5 5 8 10 12 13 14 15 17 17 15 16 15 10 10 13 12 10 12
8 4 3 4 11 14 7 12 5 3 6 7 9 12 10 14 9 7 7 6 7 7 5 6 5 3 5 6 9 11 13 14 14 16 17 17 15 14 12 12 14 13 13 12
8 1 8 13 0 5 10 19 22 9 8 6 8 17 3 5 3 6 8 6 4 5 4 2 4 4 6 8 10 11 12 14 14 15 16 16 16 16 15 13 15 14 14 12
9 5 4 6 4 2 9 12 12 21 1 13 13 14 2 6 11 2 6 4 5 5 6 4 5 7 8 10 11 11 12 13 13 15 16 17 16 16 16 14 14 14 14 13
3 7 11 16 11 3 9 17 19 18 9 20 19 27 28 16 9 10 11 8 6 7 7 8 7 9 9 10 9 10 13 13 13 15 16 16 16 16 14 13 13 13 13 14
2 6 17 25 23 11 8 11 22 23 28 23 29 27 36 24 20 21 20 22 16 15 12 12 12 12 12 11 10 13 14 13 14 15 16 16 13 15 13 13 12 12 13 13
6 4 4 20 24 19 22 16 14 25 28 24 31 29 34 27 21 19 17 14 15 16 18 17 11 12 12 14 14 14 15 15 15 16 16 16 14 13 13 13 13 13 13 13
3 6 4 14 17 14 18 25 25 23 23 24 24 32 24 24 21 19 18 16 20 21 20 18 15 12 10 11 10 13 13 11 14 14 12 13 13 13 13 13 13 13 14 14
7 2 1 7 2 15 8 17 24 27 29 26 22 25 28 26 20 12 15 17 19 17 16 16 15 13 10 7 9 9 8 11 12 12 12 11 12 13 13 14 14 13 12 13
20 12 8 9 12 15 16 9 7 10 22 23 26 30 32 28 15 26 22 19 21 19 16 10 10 10 9 8 5 6 7 9 10 12 12 13 13 13 13 13 13 12 11 11
20 20 16 16 19 24 18 16 4 3 11 21 18 27 26 21 12 20 3 4 8 5 4 6 7 8 8 6 3 7 7 8 10 10 10 10 11 12 13 13 13 11 11 11
4 7 18 18 15 11 13 25 4 8 10 9 6 18 19 12 14 10 4 3 2 4 8 8 8 9 8 6 3 4 5 8 7 7 8 9 10 11 11 10 9 10 10 9
12 9 7 7 10 9 3 4 10 2 6 11 16 9 9 8 8 6 3 5 6 7 6 5 7 6 7 4 1 3 4 3 5 7 8 8 9 7 8 11 10 10 11 11
17 12 10 10 10 3 4 5 7 5 5 17 15 17 8 9 5 6 3 3 6 5 6 4 3 2 4 5 2 2 3 6 7 7 7 8 9 9 10 12 12 10 10 9
4 5 6 5 5 11 9 9 9 5 13 17 12 8 5 10 6 7 5 3 3 3 4 2 1 3 4 4 4 5 5 5 7 8 8 8 8 9 8 7 8 9 9 8
9 6 5 9 11 12 13 8 6 8 10 11 6 7 9 8 11 9 4 1 1 2 1 0 2 4 4 5 8 6 5 6 8 8 8 8 7 8 8 6 6 6 8 10
11 11 7 9 13 13 15 6 3 6 9 9 9 7 4 7 9 3 1 0 3 5 4 5 5 5 5 7 8 6 5 5 6 7 7 6 6 7 6 6 5 7 6 7
Wind_Direction
45 205 213 226 222 241 120 210 249 230 137 262 254 266 266 271 268 259 258 256 253 249 245 230 218 208 206 205 203 204 200 199 192 191 191 196 194 189 197 202 188 172 164 158
164 226 232 106 167 188 214 253 256 279 193 234 278 277 275 264 259 255 258 255 251 252 244 230 216 209 206 204 205 204 205 198 197 196 195 201 183 178 191 190 190 173 170 169
216 181 159 176 176 200 224 235 247 266 328 234 291 269 260 256 257 261 257 255 258 253 253 241 215 212 210 210 204 205 203 201 200 198 181 154 107 102 173 197 183 178 176 160
245 180 170 182 211 202 241 212 235 255 283 272 276 289 280 275 263 246 257 248 250 248 250 250 231 214 211 215 208 205 202 201 200 196 191 193 190 185 203 180 163 180 181 163
199 180 195 214 219 190 236 131 179 176 242 305 204 256 257 264 268 255 249 253 255 257 253 241 230 226 218 207 202 204 202 202 197 196 203 198 197 202 181 167 156 176 180 171
304 10 193 199 95 182 139 96 77 85 248 262 238 233 257 251 246 276 259 259 261 267 255 249 258 246 233 214 204 199 201 206 202 199 202 202 198 195 187 169 172 176 173 176
178 213 173 175 116 91 213 170 203 221 198 250 79 239 248 263 259 242 274 288 295 243 248 243 221 207 206 201 207 210 202 206 205 205 207 206 204 195 198 182 184 172 179 190
209 230 184 181 215 177 197 201 210 228 212 262 110 240 258 234 277 284 273 267 276 262 239 245 227 213 207 200 199 202 210 209 205 206 209 207 208 201 204 195 186 192 193 184
191 242 186 220 174 181 175 216 253 269 106 292 249 263 271 238 256 239 256 266 276 265 238 248 239 218 198 197 204 205 206 212 207 209 206 203 199 202 198 190 196 195 187 173
217 257 172 145 160 188 215 149 187 213 226 234 251 260 257 280 294 271 252 267 283 266 249 244 244 232 205 205 197 203 209 211 209 211 208 203 201 198 188 178 191 188 181 174
219 246 133 166 205 179 182 214 219 242 220 244 259 253 259 255 262 281 303 305 305 310 258 221 222 193 212 213 218 205 205 207 206 209 208 204 197 189 185 187 194 188 181 170
206 263 252 232 100 255 240 226 209 213 207 248 272 264 152 257 247 305 321 297 285 311 294 293 261 227 214 217 216 215 212 207 208 204 205 206 200 193 188 189 192 184 182 171
175 176 239 256 207 203 229 213 223 228 53 222 227 254 105 263 266 301 283 293 275 278 278 252 222 225 223 225 219 214 221 211 202 205 204 201 201 196 193 191 187 187 180 170
352 181 223 238 246 115 208 224 213 205 221 235 236 250 259 238 259 259 263 261 261 262 247 248 240 236 234 234 229 228 226 216 202 204 206 206 201 196 189 186 184 179 176 171
297 236 235 248 257 255 248 220 214 215 226 223 247 240 258 257 256 260 278 285 285 269 262 242 234 233 229 226 228 232 229 212 201 207 209 209 201 197 186 180 178 175 177 179
205 244 273 253 256 250 255 257 238 220 230 239 246 253 251 261 262 263 261 265 271 270 274 272 240 236 224 225 223 222 225 213 201 207 211 205 199 187 184 176 174 175 180 178
225 181 207 261 259 255 242 237 242 245 239 236 238 244 264 266 260 261 265 254 253 260 266 272 273 267 250 242 230 227 226 204 199 204 201 197 188 186 182 173 173 180 184 175
226 236 234 249 255 252 249 251 236 240 245 242 246 255 256 256 271 268 246 258 265 263 263 266 271 278 276 252 238 238 199 192 193 200 198 191 187 187 180 177 180 178 179 183
207 228 252 255 250 282 285 272 206 216 250 245 246 252 257 265 285 274 261 248 255 265 272 270 275 281 280 267 243 193 183 188 192 201 199 191 188 183 179 183 179 173 170 177
224 224 225 240 250 259 253 248 211 196 257 255 234 244 253 260 245 262 245 196 238 258 292 302 300 292 284 288 218 175 187 187 202 198 197 185 181 178 178 175 175 175 173 169
174 216 226 237 249 253 258 273 144 226 290 339 263 229 250 245 232 275 25 321 324 332 315 317 304 293 307 314 187 194 176 201 181 158 154 162 170 171 170 164 160 156 153 145
260 254 245 235 233 247 20 136 226 24 339 338 315 295 281 276 309 294 307 284 304 314 324 327 313 322 340 340 176 158 191 138 134 138 143 150 150 148 148 145 143 148 141 143
241 232 250 245 259 164 224 243 251 192 272 290 288 291 279 281 275 284 270 290 303 319 317 327 303 341 6 355 347 164 129 133 121 117 120 129 133 137 144 142 143 144 153 158
290 265 253 332 259 283 287 273 257 276 235 237 245 274 280 274 275 278 284 265 287 335 314 316 269 78 64 27 40 77 96 102 108 112 118 126 127 132 137 141 149 152 161 163
266 292 251 269 268 278 273 254 245 255 268 274 252 239 253 270 266 255 261 295 306 290 250 74 103 82 62 79 80 86 109 121 119 117 123 127 131 137 142 143 158 169 179 180
225 233 247 263 279 276 275 297 268 282 298 308 287 280 225 238 267 239 117 312 221 187 141 99 76 81 67 69 65 36 50 103 125 130 139 142 140 141 136 131 99 100 141 168